This is the latest recevied weather packets stored in our database for station/object WX1N. If no packets are shown the sender has not sent any weather packets the latest 10 day(s).
| Time | Temp. | Humidity | Pressure | Rain* | Wind** | Luminosity | Snow |
|---|---|---|---|---|---|---|---|
| 1777770603 | 7.22° C | 73% | 1010.5 hPa | 0 mm | - | - | - |
| 1777770302 | 7.78° C | 75% | 1010.5 hPa | 0 mm | - | - | - |
| 1777770003 | 7.78° C | 74% | 1010.4 hPa | 0 mm | - | - | - |
| 1777769702 | 7.78° C | 73% | 1010.3 hPa | 0 mm | - | - | - |
| 1777769403 | 8.33° C | 72% | 1010.3 hPa | 0 mm | - | - | - |
| 1777769103 | 8.33° C | 71% | 1010.3 hPa | 0 mm | - | - | - |
| 1777768803 | 8.33° C | 71% | 1010.3 hPa | 0 mm | - | - | - |
| 1777768503 | 8.89° C | 71% | 1010.2 hPa | 0 mm | - | - | - |
| 1777768203 | 8.89° C | 70% | 1010.1 hPa | 0 mm | - | - | - |
| 1777767903 | 8.89° C | 70% | 1010.1 hPa | 0 mm | - | - | - |
| 1777767603 | 8.89° C | 69% | 1009.9 hPa | 0 mm | - | - | - |
| 1777767302 | 9.44° C | 70% | 1009.8 hPa | 0 mm | - | - | - |
| 1777767003 | 9.44° C | 70% | 1009.7 hPa | 0 mm | - | - | - |
| 1777766703 | 9.44° C | 71% | 1009.6 hPa | 0 mm | - | - | - |
| 1777766402 | 8.89° C | 76% | 1009.5 hPa | 0 mm | - | - | - |
| 1777766103 | 8.89° C | 86% | 1009.2 hPa | 0 mm | - | - | - |
| 1777765802 | 8.89° C | 85% | 1008.9 hPa | 0 mm | - | - | - |
| 1777765503 | 9.44° C | 85% | 1008.9 hPa | 0 mm | - | - | - |
| 1777765202 | 9.44° C | 84% | 1008.8 hPa | 0 mm | - | - | - |
| 1777764903 | 9.44° C | 83% | 1008.7 hPa | 0 mm | - | - | - |
| 1777764603 | 10° C | 83% | 1008.8 hPa | 0 mm | - | - | - |
| 1777764302 | 10° C | 83% | 1008.7 hPa | 0 mm | - | - | - |
| 1777764003 | 10° C | 82% | 1008.7 hPa | 0 mm | - | - | - |
| 1777763702 | 10° C | 82% | 1008.7 hPa | 0 mm | - | - | - |
| 1777763403 | 10° C | 82% | 1008.7 hPa | 0 mm | - | - | - |
* Rain latest hour (hover to see other rain measurements)
** Current wind speed in m/s (hover to see current wind gust speed)